sat.trackr.live / text

‹ back to catalog

NOAA 21 (JPSS-2)

NORAD 54234 · 2022-150A

PAYLOAD ACTIVE UNKNOWN

§ Identity

Operator
Country
US
Launch date
2022-11-10
Launch site
AFWTR
Launch vehicle
Mass (kg)
RCS (m²)

Purposes: earth_obs

External: N2YO · Heavens-Above · Gunter

§ Orbital elements

Epoch: 2026-05-25T03:02:50.240832Z

Period
101.44 min
Inclination
98.7054°
Eccentricity
0.0000499
Mean motion
14.19560683 rev/d
Perigee alt
826.5 km
Apogee alt
827.2 km
Semi-major
7,205.0 km
B*
4.5381e-5
RAAN
84.3043°
Arg perigee
253.6323°
Mean anomaly
106.4799°
Rev number
18,327

§ Raw data

NOAA 21 (JPSS-2)1 54234U 22150A   26145.12697038  .00000052  00000+0  45381-4 0  99932 54234  98.7054  84.3043 0000499 253.6323 106.4799 14.19560683183271

JSON: /api/v1/satellites/54234 · /tle

For live sub-satellite position, see the globe view (requires WebGL).

§ Visibility from observer

Set your observer location to see the next 7 days of passes ≥ 10°. The values pass through the URL so the page stays shareable.

No JS? Fill the form by hand. The geolocation button needs JavaScript.

§ Radio — SatNOGS DB

ModeDescriptionDownlinkUplink
BPSK S-band telemetry 2.248 GHz
FM TDRS input 2.067 GHz

2 transmitters · refreshed weekly from db.satnogs.org